W8APS Weather Reports


time (UTC)temp
F
wind
direction
speed
knots
gust
knots
rain 1hr
in
rain 24hr
in
rain mn
in
humidity
%
barometer
mb
20260901111021 69 0 0.0 0.0 0.00 0.14 0.00 96 1015.4
20260901110521 69 0 0.0 0.0 0.00 0.14 0.00 96 1015.4
20260901110038 69 0 0.0 0.0 0.00 0.14 0.00 96 1015.3
20260901105517 69 0 0.0 0.0 0.00 0.14 0.00 96 1015.2
20260901105018 70 0 0.0 0.0 0.00 0.14 0.00 96 1015.2
20260901104545 70 0 0.0 0.0 0.00 0.14 0.00 96 1015.1
20260901104017 70 0 0.0 0.9 0.00 0.14 0.00 96 1015.2
20260901103520 70 0 0.0 0.9 0.00 0.14 0.00 96 1015.2
20260901103033 70 0 0.0 0.9 0.00 0.14 0.00 96 1015.1
20260901102516 70 0 0.0 0.0 0.00 0.14 0.00 96 1015.2
20260901102017 70 0 0.0 0.0 0.00 0.14 0.00 95 1015.0
20260901101535 70 0 0.0 0.0 0.00 0.14 0.00 95 1015.0
20260901101021 70 0 0.0 0.0 0.00 0.14 0.00 95 1015.0
20260901100518 70 0 0.0 0.0 0.00 0.14 0.00 95 1014.9
20260901100038 70 0 0.0 0.0 0.00 0.14 0.00 95 1014.9
20260901095519 70 0 0.0 0.0 0.00 0.14 0.00 95 1014.9
20260901095016 70 0 0.0 0.0 0.00 0.14 0.00 95 1014.9
20260901094535 70 0 0.0 0.0 0.00 0.14 0.00 95 1015.0
20260901094018 70 0 0.0 0.9 0.00 0.14 0.00 95 1015.0
20260901093517 70 0 0.0 0.9 0.00 0.14 0.00 95 1015.0
20260901093034 71 0 0.0 1.7 0.00 0.14 0.00 95 1015.0
20260901092522 71 0 0.0 1.7 0.00 0.14 0.00 95 1015.1
20260901092018 71 0 0.0 1.7 0.00 0.14 0.00 95 1015.1
20260901091538 71 0 0.0 1.7 0.00 0.14 0.00 95 1014.9
20260901091017 71 0 0.0 1.7 0.00 0.14 0.00 95 1015.0
20260901090522 71 0 0.0 1.7 0.00 0.14 0.00 95 1015.0
20260901090039 70 257 0.0 1.7 0.00 0.14 0.00 95 1015.0
20260901085515 70 0 0.0 0.0 0.00 0.14 0.00 95 1014.8
20260901085015 70 0 0.0 0.0 0.00 0.14 0.00 95 1014.7
20260901084533 70 0 0.0 0.0 0.00 0.14 0.00 95 1014.7
20260901084017 70 0 0.0 0.0 0.00 0.14 0.00 95 1014.6
20260901083518 70 0 0.0 0.0 0.00 0.14 0.00 95 1014.7
20260901083036 71 0 0.0 0.9 0.00 0.14 0.00 95 1014.7
20260901082519 71 0 0.0 0.9 0.00 0.14 0.00 95 1014.7
20260901082018 71 0 0.0 0.9 0.00 0.14 0.00 95 1014.7
20260901081534 71 0 0.0 0.0 0.00 0.14 0.00 95 1014.7
20260901081018 70 0 0.0 0.0 0.00 0.14 0.00 95 1014.7
20260901080518 70 0 0.0 0.0 0.00 0.14 0.00 95 1014.7
20260901080035 71 0 0.0 0.0 0.00 0.14 0.00 95 1014.6
20260901075517 71 0 0.0 0.0 0.00 0.14 0.00 95 1014.6
20260901075017 71 0 0.0 0.0 0.00 0.14 0.00 95 1014.5
20260901074534 71 0 0.0 0.0 0.00 0.14 0.00 95 1014.6
20260901074016 71 0 0.0 0.0 0.00 0.14 0.00 95 1014.6
20260901073516 71 0 0.0 0.0 0.00 0.14 0.00 94 1014.6
20260901073038 71 0 0.0 0.0 0.00 0.14 0.00 94 1014.6
20260901072520 71 0 0.0 0.0 0.00 0.14 0.00 94 1014.7
20260901072020 71 0 0.0 0.0 0.00 0.14 0.00 94 1014.7
20260901071535 71 0 0.0 0.0 0.00 0.14 0.00 93 1014.7
20260901071015 71 0 0.0 0.0 0.00 0.14 0.00 93 1014.7
20260901070518 71 0 0.0 0.0 0.00 0.14 0.00 93 1014.7
20260901070042 72 0 0.0 0.0 0.00 0.14 0.00 93 1014.7
20260901065518 72 0 0.0 0.0 0.00 0.14 0.00 92 1014.8
20260901065021 72 0 0.0 0.0 0.00 0.14 0.00 92 1014.6
20260901064543 72 0 0.0 0.0 0.00 0.14 0.00 92 1014.6
20260901064020 72 0 0.0 0.0 0.00 0.14 0.00 92 1014.7
20260901063520 72 0 0.0 0.0 0.00 0.14 0.00 91 1014.6
20260901063038 72 0 0.0 0.0 0.00 0.14 0.00 91 1014.6
20260901062518 73 0 0.0 0.0 0.00 0.14 0.00 91 1014.7
20260901062021 73 0 0.0 0.0 0.00 0.14 0.00 91 1014.6
20260901061539 73 0 0.0 0.0 0.00 0.14 0.00 91 1014.7
20260901061019 73 0 0.0 0.0 0.00 0.14 0.00 90 1014.7
20260901060521 73 0 0.0 1.7 0.00 0.14 0.00 90 1014.7
20260901060037 73 167 0.0 1.7 0.00 0.14 0.00 90 1014.7
20260901055518 73 0 0.0 0.9 0.00 0.14 0.00 90 1014.8
20260901055016 73 0 0.0 0.9 0.00 0.14 0.00 89 1014.7
20260901054536 73 0 0.0 0.9 0.00 0.14 0.00 89 1014.9
20260901054021 74 0 0.0 0.9 0.00 0.14 0.00 89 1014.9
20260901053519 74 0 0.0 0.9 0.00 0.14 0.00 89 1014.9
20260901053038 74 0 0.0 0.9 0.00 0.14 0.00 89 1015.0
20260901052523 74 0 0.0 0.9 0.00 0.14 0.00 88 1015.0
20260901052019 74 227 0.0 0.9 0.00 0.14 0.00 88 1015.1
20260901051541 74 0 0.0 0.9 0.00 0.14 0.00 88 1015.0
20260901051019 74 0 0.0 1.7 0.00 0.14 0.00 87 1015.0
20260901050520 74 0 0.0 2.6 0.00 0.14 0.00 87 1015.0
20260901050035 74 0 0.0 3.5 0.00 0.14 0.00 87 1015.0
20260901045520 74 0 0.0 3.5 0.00 0.14 0.00 86 1014.9
20260901045018 74 231 0.9 3.5 0.00 0.14 0.00 86 1015.0
20260901044544 74 0 0.0 2.6 0.00 0.14 0.00 86 1014.9
20260901044019 74 219 0.0 2.6 0.00 0.14 0.00 86 1015.0
20260901043518 74 0 0.0 3.5 0.00 0.14 0.00 86 1015.1
20260901043040 75 155 0.0 3.5 0.00 0.14 0.00 86 1015.1
20260901042520 75 223 0.0 3.5 0.00 0.14 0.00 85 1015.0
20260901042016 75 195 0.9 3.5 0.00 0.14 0.00 85 1015.0
20260901041535 75 0 0.9 5.2 0.00 0.14 0.00 85 1014.9
20260901041020 75 0 0.9 5.2 0.00 0.14 0.00 85 1015.0
20260901040520 75 217 0.9 5.2 0.00 0.14 0.00 85 1015.1
20260901040039 75 207 0.9 6.1 0.00 0.14 0.00 84 1015.1
20260901035519 75 220 1.7 7.0 0.00 0.14 0.14 84 1015.1
20260901035017 75 262 0.0 7.0 0.00 0.14 0.14 84 1015.0
20260901034537 75 0 0.9 7.0 0.00 0.14 0.14 84 1015.1
20260901034018 74 178 2.6 7.0 0.00 0.14 0.14 84 1015.1
20260901033518 74 166 0.9 7.0 0.00 0.14 0.14 84 1015.1
20260901033038 74 209 1.7 7.0 0.00 0.14 0.14 83 1015.1
20260901032518 74 219 1.7 7.0 0.00 0.14 0.14 83 1015.1
20260901032021 74 214 1.7 7.8 0.00 0.14 0.14 83 1015.1
20260901031538 74 211 2.6 7.8 0.00 0.14 0.14 83 1015.0
20260901031019 74 195 1.7 6.1 0.00 0.14 0.14 83 1015.0
20260901030519 73 172 0.9 5.2 0.00 0.14 0.14 83 1015.0
20260901030045 73 160 0.9 5.2 0.00 0.14 0.14 83 1015.0
20260901025523 73 173 1.7 5.2 0.00 0.14 0.14 83 1014.9
20260901025019 73 201 0.9 3.5 0.00 0.14 0.14 83 1014.9
20260901024539 73 163 0.9 6.1 0.00 0.14 0.14 82 1015.1
20260901024020 73 149 0.9 6.1 0.00 0.14 0.14 82 1014.9
20260901023519 73 191 1.7 5.2 0.00 0.14 0.14 82 1015.0
20260901023039 73 181 1.7 5.2 0.00 0.14 0.14 82 1015.0
20260901022519 73 198 1.7 3.5 0.00 0.14 0.14 82 1015.0
20260901022016 73 163 0.9 5.2 0.00 0.14 0.14 82 1015.0
20260901021536 73 160 1.7 5.2 0.00 0.14 0.14 82 1015.0
20260901021021 73 210 1.7 4.3 0.00 0.14 0.14 83 1015.0
20260901020521 73 172 0.9 4.3 0.00 0.14 0.14 83 1015.0
20260901020038 73 217 1.7 4.3 0.00 0.14 0.14 83 1015.1
20260901015519 72 213 1.7 4.3 0.00 0.14 0.14 84 1015.2
20260901015023 72 193 0.9 3.5 0.00 0.14 0.14 85 1015.2
20260901014541 72 169 0.0 5.2 0.00 0.14 0.14 85 1015.3
20260901014016 72 229 0.9 5.2 0.00 0.14 0.14 86 1015.2
20260901013517 72 192 1.7 6.1 0.00 0.14 0.14 86 1015.1
20260901013039 72 185 1.7 6.1 0.00 0.14 0.14 87 1015.0
20260901012521 72 0 0.9 4.3 0.00 0.14 0.14 88 1015.1
20260901012023 72 239 0.9 4.3 0.00 0.14 0.14 89 1015.1
20260901011537 72 182 0.9 4.3 0.00 0.14 0.14 89 1015.1
20260901011020 72 165 0.9 5.2 0.00 0.14 0.14 89 1015.0
20260901010520 72 0 0.9 5.2 0.00 0.14 0.14 89 1015.0
20260901010039 72 0 0.0 5.2 0.00 0.14 0.14 89 1015.0
20260901005517 72 145 1.7 5.2 0.00 0.14 0.14 89 1014.7
20260901005016 72 219 1.7 4.3 0.00 0.14 0.14 89 1014.4
20260901004540 72 176 0.0 3.5 0.00 0.14 0.14 89 1014.4
20260901004017 72 0 0.9 3.5 0.00 0.14 0.14 89 1014.4
20260901003517 72 0 0.9 3.5 0.00 0.14 0.14 88 1014.4
20260901003038 72 196 1.7 3.5 0.00 0.14 0.14 88 1014.3
20260901002516 72 182 1.7 3.5 0.00 0.14 0.14 88 1014.3
20260901002021 73 187 1.7 4.3 0.00 0.14 0.14 88 1014.3
20260901001533 73 193 1.7 4.3 0.00 0.14 0.14 87 1014.3
20260901001021 73 162 1.7 3.5 0.00 0.14 0.14 87 1014.3
20260901000521 73 188 1.7 4.3 0.00 0.14 0.14 87 1014.4
20260901000044 73 198 1.7 4.3 0.00 0.14 0.14 87 1014.4
20260831235518 73 143 2.6 4.3 0.00 0.14 0.14 87 1014.4
20260831235018 73 169 1.7 4.3 0.00 0.14 0.14 86 1014.5
20260831234533 74 179 1.7 5.2 0.00 0.14 0.14 86 1014.5
20260831234020 74 156 1.7 5.2 0.00 0.14 0.14 86 1014.5
20260831233518 74 162 1.7 5.2 0.00 0.14 0.14 86 1014.6
20260831233037 74 173 2.6 5.2 0.00 0.14 0.14 86 1014.7
20260831232519 74 134 1.7 5.2 0.00 0.14 0.14 85 1014.6
20260831232019 74 165 1.7 6.1 0.00 0.14 0.14 86 1014.7
20260831231536 74 210 2.6 6.1 0.06 0.14 0.14 85 1014.8
20260831231017 74 193 1.7 6.1 0.06 0.14 0.14 86 1014.8
20260831230517 75 165 0.0 5.2 0.06 0.14 0.14 86 1014.8
20260831230043 75 205 1.7 6.1 0.06 0.14 0.14 85 1014.9
20260831225517 75 165 2.6 6.1 0.06 0.14 0.14 85 1015.0
20260831225015 75 209 3.5 6.1 0.06 0.14 0.14 84 1015.2
20260831224538 75 165 1.7 6.1 0.06 0.14 0.14 84 1015.3
20260831224021 75 191 1.7 7.0 0.06 0.14 0.14 85 1015.3
20260831223519 75 198 3.5 7.0 0.06 0.14 0.14 85 1015.2
20260831223033 74 219 3.5 7.0 0.06 0.14 0.14 85 1015.4
20260831222519 75 219 2.6 7.0 0.06 0.14 0.14 86 1015.5
20260831222020 75 160 3.5 7.0 0.06 0.14 0.14 84 1015.4
20260831221536 75 205 0.9 5.2 0.00 0.08 0.08 84 1015.6
20260831221019 75 198 2.6 5.2 0.00 0.08 0.08 85 1015.6
20260831220517 75 176 0.9 5.2 0.00 0.08 0.08 86 1015.8
20260831220035 75 220 1.7 5.2 0.00 0.08 0.08 87 1015.8
20260831215516 75 177 2.6 5.2 0.00 0.08 0.08 87 1015.7
20260831215019 75 169 0.9 7.8 0.00 0.08 0.08 87 1016.1
20260831214601 75 209 1.7 7.8 0.00 0.08 0.08 87 1016.2
20260831214021 75 179 3.5 7.8 0.00 0.08 0.08 87 1015.4
20260831213520 75 191 3.5 7.8 0.00 0.08 0.08 88 1015.5
20260831213037 74 188 4.3 7.8 0.00 0.08 0.08 88 1015.7
20260831212517 74 195 2.6 8.7 0.00 0.08 0.08 88 1015.7
20260831212021 74 172 2.6 8.7 0.00 0.08 0.08 89 1015.9
20260831211534 74 159 3.5 8.7 0.00 0.08 0.08 89 1016.0
20260831211017 74 162 1.7 7.0 0.00 0.08 0.08 89 1016.1
20260831210517 74 238 2.6 6.1 0.00 0.08 0.08 89 1016.2
20260831210038 74 186 3.5 8.7 0.00 0.08 0.08 89 1016.0
20260831205517 74 158 5.2 8.7 0.00 0.08 0.08 89 1016.0
20260831205025 74 164 2.6 7.0 0.00 0.08 0.08 89 1015.8
20260831204536 74 111 3.5 10.4 0.00 0.08 0.08 89 1015.9
20260831204018 74 175 3.5 10.4 0.00 0.08 0.08 88 1016.0
20260831203518 74 141 5.2 10.4 0.00 0.08 0.08 88 1016.1
20260831203037 74 191 5.2 9.6 0.00 0.08 0.08 88 1016.2
20260831202520 74 169 3.5 8.7 0.00 0.08 0.08 88 1016.2
20260831202025 74 163 2.6 8.7 0.00 0.08 0.08 88 1016.2
20260831201537 74 122 3.5 8.7 0.00 0.08 0.08 88 1016.4
20260831201016 74 171 2.6 8.7 0.00 0.08 0.08 88 1016.4
20260831200516 73 175 2.6 8.7 0.00 0.08 0.08 88 1016.4
20260831200042 73 212 3.5 8.7 0.00 0.08 0.08 88 1016.6
20260831195521 73 207 3.5 8.7 0.00 0.08 0.08 88 1016.7
20260831195019 73 46 3.5 7.8 0.00 0.08 0.08 88 1016.8
20260831194540 73 149 2.6 7.8 0.01 0.08 0.08 88 1016.8
20260831194021 73 91 2.6 7.8 0.01 0.08 0.08 89 1016.9
20260831193519 73 102 2.6 7.0 0.01 0.08 0.08 90 1017.0
20260831193037 72 126 4.3 7.0 0.01 0.08 0.08 91 1017.1
20260831192520 72 77 1.7 6.1 0.01 0.08 0.08 91 1017.4
20260831192021 72 106 1.7 6.1 0.01 0.08 0.08 91 1017.5
20260831191539 72 0 0.0 2.6 0.02 0.08 0.08 91 1017.7
20260831191016 72 115 0.0 4.3 0.02 0.08 0.08 92 1017.7
20260831190518 72 75 0.9 4.3 0.02 0.08 0.08 91 1017.6
20260831190058 72 91 0.9 4.3 0.02 0.08 0.08 92 1017.4
20260831185522 72 72 0.9 4.3 0.02 0.08 0.08 91 1017.5
20260831185022 72 103 0.0 4.3 0.01 0.07 0.07 91 1017.7
20260831184536 72 73 1.7 4.3 0.01 0.07 0.07 91 1017.7
20260831184020 72 0 1.7 4.3 0.01 0.07 0.07 90 1017.7
20260831183520 73 99 0.0 6.1 0.01 0.07 0.07 91 1017.8
20260831183049 73 0 2.6 6.1 0.01 0.07 0.07 90 1018.0
20260831182522 73 29 1.7 4.3 0.01 0.07 0.07 88 1018.0
20260831182020 73 5 0.0 2.6 0.00 0.06 0.06 87 1017.7
20260831181538 73 98 1.7 3.5 0.00 0.06 0.06 86 1017.3
20260831181018 74 122 0.9 3.5 0.00 0.06 0.06 86 1017.1
20260831180519 74 0 0.9 5.2 0.00 0.06 0.06 87 1016.9
20260831180037 74 173 0.9 5.2 0.00 0.06 0.06 87 1016.8
20260831175527 74 161 1.7 5.2 0.00 0.06 0.06 86 1016.8
20260831175019 74 169 0.9 4.3 0.00 0.06 0.06 88 1016.8
20260831174535 73 185 1.7 4.3 0.00 0.06 0.06 88 1016.9
20260831174016 73 193 0.0 3.5 0.01 0.06 0.06 90 1017.0
20260831173517 73 136 1.7 3.5 0.01 0.06 0.06 90 1017.1
20260831173039 73 201 0.0 1.7 0.03 0.06 0.06 90 1017.3
20260831172517 73 0 0.0 1.7 0.03 0.06 0.06 91 1017.3
20260831172017 72 113 0.0 1.7 0.04 0.06 0.06 90 1017.2
20260831171538 72 0 0.0 1.7 0.05 0.06 0.06 92 1017.3
20260831171018 72 0 0.0 1.7 0.05 0.06 0.06 92 1017.4
20260831170518 72 0 0.0 0.9 0.06 0.06 0.06 92 1017.4
20260831170041 72 0 0.0 1.7 0.06 0.06 0.06 92 1017.4
20260831165518 71 0 0.0 1.7 0.06 0.18 0.06 91 1017.3
20260831165020 71 0 0.0 1.7 0.06 0.18 0.06 90 1017.3
20260831164537 72 0 0.0 1.7 0.06 0.18 0.06 89 1017.5
20260831164022 72 0 0.0 0.9 0.05 0.17 0.05 87 1017.7
20260831163519 73 0 0.0 2.6 0.04 0.16 0.04 86 1018.1
20260831163042 73 0 0.0 2.6 0.03 0.15 0.03 84 1018.4
20260831162517 73 0 0.9 7.0 0.02 0.14 0.02 83 1018.8
20260831162016 74 266 2.6 7.0 0.01 0.13 0.01 82 1019.1
20260831161538 75 278 1.7 6.1 0.01 0.13 0.01 80 1019.3
20260831161017 75 267 2.6 7.0 0.01 0.13 0.01 79 1019.2
20260831160517 76 266 1.7 7.0 0.00 0.12 0.00 78 1019.1
20260831160043 76 0 1.7 6.1 0.00 0.12 0.00 78 1019.2
20260831155521 76 260 2.6 6.1 0.00 0.22 0.00 77 1019.1
20260831155021 76 266 0.9 5.2 0.00 0.22 0.00 77 1018.9
20260831154617 76 0 1.7 5.2 0.00 0.22 0.00 77 1018.7
20260831154017 76 206 0.9 3.5 0.00 0.22 0.00 77 1018.7
20260831153518 76 257 0.9 3.5 0.00 0.22 0.00 77 1018.4
20260831153037 76 239 0.9 3.5 0.00 0.22 0.00 78 1018.4
20260831152519 76 210 0.0 3.5 0.00 0.22 0.00 78 1018.4
20260831152017 76 233 0.0 3.5 0.00 0.22 0.00 79 1018.4
20260831151538 75 236 0.9 3.5 0.00 0.22 0.00 81 1018.4
20260831151018 75 223 0.0 3.5 0.00 0.22 0.00 81 1018.3
20260831150521 75 227 0.0 4.3 0.00 0.22 0.00 82 1018.2
20260831150035 75 228 0.0 5.2 0.00 0.22 0.00 82 1018.1
20260831145520 74 0 0.9 5.2 0.00 0.33 0.00 82 1018.0
20260831145020 74 241 0.9 3.5 0.00 0.33 0.00 83 1018.0
20260831144539 74 0 0.9 3.5 0.00 0.33 0.00 83 1017.9
20260831144018 74 0 1.7 3.5 0.00 0.33 0.00 84 1017.7
20260831143517 74 238 0.0 3.5 0.00 0.33 0.00 84 1017.5
20260831143035 74 0 0.9 3.5 0.00 0.33 0.00 84 1017.5
20260831142517 73 0 0.9 3.5 0.00 0.33 0.00 85 1017.5
20260831142018 73 0 0.0 2.6 0.00 0.33 0.00 86 1017.6
20260831141536 73 240 0.0 2.6 0.00 0.33 0.00 86 1017.7
20260831141017 73 245 0.0 3.5 0.00 0.33 0.00 87 1017.7
20260831140516 73 0 0.9 3.5 0.00 0.33 0.00 86 1017.7
20260831140041 73 165 0.0 1.7 0.00 0.33 0.00 87 1017.6
20260831135517 72 233 0.0 1.7 0.00 0.55 0.00 87 1017.6
20260831135018 72 164 0.0 1.7 0.00 0.55 0.00 88 1017.6
20260831134533 72 0 0.0 1.7 0.00 0.55 0.00 87 1017.6
20260831134015 72 0 0.0 2.6 0.00 0.55 0.00 88 1017.6
20260831133517 72 0 0.0 2.6 0.00 0.55 0.00 88 1017.4
20260831133037 71 162 0.0 0.9 0.00 0.55 0.00 89 1017.5
20260831132517 71 0 0.0 0.0 0.00 0.55 0.00 89 1017.5
20260831132021 71 0 0.0 0.0 0.00 0.55 0.00 90 1017.6
20260831131542 71 0 0.0 1.7 0.00 0.55 0.00 90 1017.7
20260831131021 71 0 0.0 1.7 0.00 0.55 0.00 90 1017.5
20260831130520 71 0 0.0 1.7 0.00 0.55 0.00 90 1017.4
20260831130038 71 0 0.0 0.9 0.00 0.55 0.00 90 1017.3
20260831125517 70 202 0.0 1.7 0.00 0.68 0.00 91 1017.3
20260831125018 70 0 0.0 1.7 0.00 0.68 0.00 91 1017.2
20260831124545 70 0 0.0 0.0 0.00 0.68 0.00 92 1017.3
20260831124016 70 0 0.0 0.0 0.00 0.68 0.00 92 1017.2
20260831123515 70 0 0.0 0.0 0.00 0.68 0.00 92 1017.2
20260831123033 70 0 0.0 0.0 0.00 0.68 0.00 92 1017.3
20260831122518 70 0 0.0 0.0 0.00 0.68 0.00 92 1017.2
20260831122020 70 196 0.0 0.0 0.00 0.68 0.00 93 1017.3
20260831121538 70 0 0.0 0.0 0.00 0.68 0.00 93 1017.3
20260831121020 70 0 0.0 0.0 0.00 0.68 0.00 93 1017.2
20260831120519 69 0 0.0 0.0 0.00 0.68 0.00 93 1017.2
20260831120051 69 0 0.0 0.0 0.00 0.68 0.00 93 1017.3
20260831115519 69 0 0.0 0.0 0.00 0.71 0.00 93 1017.1
20260831115018 69 0 0.0 0.0 0.00 0.71 0.00 93 1017.2
20260831114537 69 0 0.0 0.0 0.00 0.71 0.00 93 1017.3
20260831114017 69 0 0.0 0.0 0.00 0.71 0.00 93 1017.2
20260831113516 69 0 0.0 0.0 0.00 0.71 0.00 93 1017.3
20260831113037 69 0 0.0 0.0 0.00 0.71 0.00 93 1017.3
20260831112515 69 0 0.0 0.0 0.00 0.71 0.00 93 1017.3
20260831112017 69 0 0.0 0.0 0.00 0.71 0.00 92 1017.4
20260831111534 69 0 0.0 0.0 0.00 0.71 0.00 92 1017.4